Weather History for EBLG - November, 2012

Change the Weather History Date:

Sunday, November 11, 2012

  Actual Average (WUND) Record (WUND)
Temperature  
Mean Temperature 46 °F -  
Max Temperature 51 °F 44 °F - (-1)
Min Temperature 41 °F 36 °F - (-1)
Degree Days  
Heating Degree Days 19    
Moisture  
Dew Point 40 °F    
Average Humidity 83    
Maximum Humidity 100    
Minimum Humidity 60    
Precipitation  
Precipitation 0.00 in - - ()
Sea Level Pressure  
Sea Level Pressure 29.87 in    
Wind  
Wind Speed 9 mph ()    
Max Wind Speed 15 mph    
Max Gust Speed -    
Visibility 7.2 miles    
Events      
Averages and records for this station are not official NWS values.
T = Trace of Precipitation, MM = Missing Value Source: Averaged Metar Reports

Daily Weather History Graph

Daily Weather History Graph

Search for Another Location

Airport or City:

Trip Planner

Search our weather history database for the weather conditions in past years. The results will help you decide how hot, cold, wet, or windy it might be!

Date:

Astronomy

Nov. 11, 2012 Rise Set
Actual Time 7:46 AM CET 4:56 PM CET
Civil Twilight 7:11 AM CET 5:32 PM CET
Nautical Twilight 6:31 AM CET 6:12 PM CET
Astronomical Twilight 5:53 AM CET 6:50 PM CET
Moon 4:27 AM CET (11/11) 3:22 PM CET (11/11)
Length of Visible Light 10h 21m
Length of Day
9h 09m
Waning Crescent, 9% of the Moon is Illuminated
Nov 11
Waning Crescent
Nov 13
New
Nov 20
First Quarter
Nov 28
Full
Dec 6
Last Quarter

Hourly Weather History & Observations

Time (CET) Temp. Windchill Dew Point Humidity Pressure Visibility Wind Dir Wind Speed Gust Speed Precip Events Conditions
12:20 AM 46.4 °F 40.1 °F 44.6 °F 93% 29.59 in 6.2 mi West 15.0 mph - N/A   Mostly Cloudy
12:50 AM 46.4 °F 40.4 °F 42.8 °F 87% 29.59 in 6.2 mi WSW 13.8 mph - N/A   Mostly Cloudy
1:00 AM 47 °F - 44 °F 84% 29.63 in 11 mi WSW 13.4 mph - -   Partly Cloudy
1:20 AM 46.4 °F 40.7 °F 42.8 °F 87% 29.62 in 6.2 mi WSW 12.7 mph - N/A   Mostly Cloudy
1:50 AM 46.4 °F 41.1 °F 42.8 °F 87% 29.62 in 6.2 mi WSW 11.5 mph - N/A   Mostly Cloudy
2:20 AM 44.6 °F 39.7 °F 41.0 °F 87% 29.65 in 6.2 mi SW 9.2 mph - N/A   Mostly Cloudy
2:50 AM 44.6 °F 38.8 °F 41.0 °F 87% 29.65 in 6.2 mi SW 11.5 mph - N/A   Scattered Clouds
3:20 AM 42.8 °F 38.0 °F 41.0 °F 93% 29.68 in 6.2 mi SW 8.1 mph - N/A   Scattered Clouds
3:50 AM 44.6 °F 39.2 °F 41.0 °F 87% 29.68 in 6.2 mi SSW 10.4 mph - N/A   Mostly Cloudy
4:00 AM 44 °F - 41 °F 87% 29.71 in 19 mi SSW 8.9 mph - -   Mostly Cloudy
4:20 AM 42.8 °F 37.5 °F 41.0 °F 93% 29.68 in 6.2 mi SSW 9.2 mph - N/A   Mostly Cloudy
4:50 AM 42.8 °F 37.0 °F 41.0 °F 93% 29.71 in 6.2 mi SW 10.4 mph - N/A   Scattered Clouds
5:20 AM 42.8 °F 38.6 °F 41.0 °F 93% 29.71 in 6.2 mi SSW 6.9 mph - N/A   Scattered Clouds
5:50 AM 41.0 °F 36.4 °F 41.0 °F 100% 29.71 in 6.2 mi SW 6.9 mph - N/A   Scattered Clouds
6:20 AM 42.8 °F 39.3 °F 41.0 °F 93% 29.74 in 6.2 mi South 5.8 mph - N/A   Scattered Clouds
6:50 AM 42.8 °F 39.3 °F 41.0 °F 93% 29.74 in 6.2 mi SSE 5.8 mph - N/A   Mostly Cloudy
7:00 AM 42 °F - 40 °F 92% 29.78 in 9 mi SSE 4.5 mph - -   Mostly Cloudy
7:20 AM 42.8 °F 38.6 °F 41.0 °F 93% 29.77 in 6.2 mi South 6.9 mph - N/A   Mostly Cloudy
7:50 AM 42.8 °F 38.0 °F 39.2 °F 87% 29.77 in 6.2 mi South 8.1 mph - N/A   Scattered Clouds
8:20 AM 42.8 °F 37.5 °F 39.2 °F 87% 29.80 in 6.2 mi SSW 9.2 mph - N/A   Scattered Clouds
8:50 AM 42.8 °F 37.0 °F 39.2 °F 87% 29.80 in 6.2 mi SW 10.4 mph - N/A   Scattered Clouds
9:20 AM 42.8 °F 37.5 °F 41.0 °F 93% 29.83 in 6.2 mi SSW 9.2 mph - N/A   Partly Cloudy
9:50 AM 44.6 °F 40.2 °F 41.0 °F 87% 29.83 in 6.2 mi SSW 8.1 mph - N/A   Partly Cloudy
10:00 AM 45 °F - 41 °F 80% 29.86 in 9 mi SSW 8.9 mph - -   Scattered Clouds
10:20 AM 44.6 °F 39.2 °F 41.0 °F 87% 29.83 in 6.2 mi South 10.4 mph - N/A   Partly Cloudy
10:50 AM 46.4 °F 41.9 °F 41.0 °F 81% 29.86 in - SSW 9.2 mph - N/A   Clear
11:20 AM 48.2 °F - 41.0 °F 76% 29.86 in 6.2 mi SSW 8.1 mph - N/A   Partly Cloudy
11:50 AM 48.2 °F - 41.0 °F 76% 29.86 in 6.2 mi SSW 9.2 mph - N/A   Partly Cloudy
12:20 PM 50.0 °F - 41.0 °F 71% 29.86 in 6.2 mi SW 8.1 mph - N/A   Partly Cloudy
12:50 PM 50.0 °F - 41.0 °F 71% 29.89 in 6.2 mi SW 8.1 mph - N/A   Partly Cloudy
1:00 PM 51 °F - 41 °F 60% 29.90 in 19 mi SW 6.7 mph - -   Scattered Clouds
1:20 PM 50.0 °F - 39.2 °F 66% 29.89 in 6.2 mi SW 10.4 mph - N/A   Partly Cloudy
1:50 PM 50.0 °F - 39.2 °F 66% 29.89 in 6.2 mi SSW 10.4 mph - N/A   Partly Cloudy
2:20 PM 50.0 °F - 39.2 °F 66% 29.89 in 6.2 mi SW 10.4 mph - N/A   Partly Cloudy
2:50 PM 50.0 °F - 39.2 °F 66% 29.92 in 6.2 mi WSW 9.2 mph - N/A   Partly Cloudy
3:20 PM 50.0 °F - 39.2 °F 66% 29.92 in 6.2 mi WSW 8.1 mph - N/A   Partly Cloudy
3:50 PM 50.0 °F - 41.0 °F 71% 29.95 in 6.2 mi West 6.9 mph - N/A   Partly Cloudy
4:00 PM 49 °F - 40 °F 64% 29.96 in 19 mi West 6.7 mph - -   Scattered Clouds
4:20 PM 48.2 °F - 41.0 °F 76% 29.95 in 6.2 mi WSW 6.9 mph - N/A   Partly Cloudy
4:50 PM 44.6 °F 40.7 °F 41.0 °F 87% 29.98 in 6.2 mi West 6.9 mph - N/A   Partly Cloudy
5:20 PM 42.8 °F 38.0 °F 41.0 °F 93% 29.98 in 6.2 mi West 8.1 mph - N/A   Partly Cloudy
5:50 PM 42.8 °F 38.6 °F 39.2 °F 87% 30.01 in 6.2 mi West 6.9 mph - N/A   Partly Cloudy
6:20 PM 41.0 °F 36.4 °F 39.2 °F 93% 30.04 in 6.2 mi WSW 6.9 mph - N/A   Partly Cloudy
6:50 PM 41.0 °F 35.2 °F 39.2 °F 93% 30.04 in 6.2 mi WSW 9.2 mph - N/A   Scattered Clouds
7:00 PM 41 °F - 38 °F 87% 30.07 in 10 mi WSW 8.9 mph - -   Partly Cloudy
7:20 PM 41.0 °F 35.8 °F 37.4 °F 87% 30.04 in 6.2 mi SW 8.1 mph - N/A   Scattered Clouds
7:50 PM 42.8 °F 37.5 °F 37.4 °F 81% 30.06 in 6.2 mi SSW 9.2 mph - N/A   Scattered Clouds
8:20 PM 41.0 °F 35.2 °F 37.4 °F 87% 30.06 in 6.2 mi SW 9.2 mph - N/A   Scattered Clouds
8:50 PM 42.8 °F 38.0 °F 37.4 °F 81% 30.06 in 6.2 mi South 8.1 mph - N/A   Scattered Clouds
9:20 PM 42.8 °F 38.6 °F 37.4 °F 81% 30.09 in 6.2 mi SSW 6.9 mph - N/A   Mostly Cloudy
9:50 PM 42.8 °F 39.3 °F 37.4 °F 81% 30.12 in 6.2 mi SSW 5.8 mph - N/A   Mostly Cloudy
10:00 PM 42 °F - 38 °F 80% 30.14 in 10 mi SSW 4.5 mph - -   Mostly Cloudy
10:20 PM 42.8 °F 38.0 °F 37.4 °F 81% 30.12 in 6.2 mi SW 8.1 mph - N/A   Mostly Cloudy
10:50 PM 42.8 °F 37.0 °F 39.2 °F 87% 30.12 in 6.2 mi SW 10.4 mph - N/A   Mostly Cloudy
11:20 PM 42.8 °F 36.6 °F 39.2 °F 87% 30.12 in 6.2 mi SW 11.5 mph - N/A   Mostly Cloudy
11:50 PM 42.8 °F 37.5 °F 39.2 °F 87% 30.12 in 6.2 mi SW 9.2 mph - N/A   Mostly Cloudy